Starlink 11274

operational
NORAD ID: 61001 Int'l Des: 2024-158 Owner: SPXS Country: US Constellation: starlink
LEOCIRCULAR

About Starlink 11274

Description loading...

Live Position

Loading 3D Globe...

Upcoming Passes

Altitude History

Altitude vs Time

uPlot chart will show altitude changes over time

Two-Line Element Set

1 61001U 24158M 25303.91682228 .00001167 00000-0 14493-4 0 9999
2 61001 53.1591 200.8975 0001028 88.9453 271.1683 15.69709115 67200
Epoch: Oct 30, 2025 • Age: 7 hours

Current Status

Altitude 365.6 km
Velocity 7.70 km/s
Sub-Earth Point 53.24°N, 173.48°W
Launch Date Sep 5, 2024
Age 1.1 years
Type internet

Technical Details

Classification Payload
Mass 960.00 kg
Dry Mass 910.00 kg
Total Mass 960.00 kg
Length 0.30 m
Diameter 4.10 m
Span 29.00 m
Shape Box + pan
Manufacturer SPXS
Bus Type Starlink V2MD
Phase Status In Orbit
Owner/State SPXS/US

Large Constellations

Loading constellations...